Location: Alafon
(8.4500°N, 4.2333°E)
Time: 02:14:40
(UTC+00:00)

Vanguard 2 - Pass Details

Date: 06 August 2021
Orbit: 553 x 2937 km, 32.9° (Epoch: 27 September)

Event Time Altitude Azimuth Distance (km) Brightness Sun altitude
Rises 14:28:34 0° 239° (WSW) 6,055 12.5 50.3°
Reaches altitude 10° 14:41:21 10° 197° (SSW) 5,651 12.1 47.2°
Maximum altitude 14:41:36 10° 196° (SSW) 5,657 12.1 47.2°
Drops below altitude 10° 14:41:50 10° 196° (SSW) 5,664 12.1 47.1°
Sets 14:56:07 0° 154° (SSE) 6,719 12.0 43.7°
